| time (UTC) | temp C | wind direction | speed KPH | gust KPH | rain 1hr cm | rain 24hr cm | rain mn cm | humidity % | barometer mb |
| 20260508105007 | 9 | 302 | 0.0 | 1.6 | 0.00 | 0.00 | 0.00 | 76 | 1013.5 |
| 20260508104535 | 8 | 302 | 0.0 | 0.0 | 0.00 | 0.00 | 0.00 | 80 | 1013.3 |
| 20260508104007 | 8 | 302 | 0.0 | 0.0 | 0.00 | 0.00 | 0.00 | 81 | 1013.3 |
| 20260508103510 | 7 | 302 | 0.0 | 0.0 | 0.00 | 0.00 | 0.00 | 86 | 1013.3 |
| 20260508103034 | 6 | 302 | 0.0 | 0.0 | 0.00 | 0.00 | 0.00 | 85 | 1013.3 |
| 20260508102509 | 6 | 302 | 0.0 | 0.0 | 0.00 | 0.00 | 0.00 | 84 | 1013.2 |
| 20260508102011 | 5 | 302 | 0.0 | 0.0 | 0.00 | 0.00 | 0.00 | 84 | 1013.1 |
| 20260508101524 | 5 | 302 | 0.0 | 0.0 | 0.00 | 0.00 | 0.00 | 83 | 1013.2 |
| 20260508101007 | 6 | 302 | 0.0 | 0.0 | 0.00 | 0.00 | 0.00 | 83 | 1013.1 |
| 20260508100505 | 6 | 302 | 0.0 | 0.0 | 0.00 | 0.00 | 0.00 | 82 | 1013.2 |
| 20260508100016 | 6 | 302 | 0.0 | 0.0 | 0.00 | 0.00 | 0.00 | 81 | 1013.1 |
| 20260508095506 | 6 | 302 | 0.0 | 0.0 | 0.00 | 0.00 | 0.00 | 80 | 1013.1 |
| 20260508095009 | 6 | 302 | 0.0 | 0.0 | 0.00 | 0.00 | 0.00 | 80 | 1013.1 |
| 20260508094521 | 6 | 302 | 0.0 | 0.0 | 0.00 | 0.00 | 0.00 | 79 | 1013.0 |
| 20260508094010 | 7 | 302 | 0.0 | 0.0 | 0.00 | 0.00 | 0.00 | 79 | 1013.0 |
| 20260508093509 | 7 | 302 | 0.0 | 0.0 | 0.00 | 0.00 | 0.00 | 78 | 1012.9 |
| 20260508093025 | 7 | 302 | 0.0 | 0.0 | 0.00 | 0.00 | 0.00 | 78 | 1012.9 |
| 20260508092509 | 7 | 303 | 0.0 | 0.0 | 0.00 | 0.00 | 0.00 | 77 | 1012.8 |
| 20260508092009 | 7 | 303 | 0.0 | 0.0 | 0.00 | 0.00 | 0.00 | 77 | 1012.8 |
| 20260508091525 | 7 | 303 | 0.0 | 0.0 | 0.00 | 0.00 | 0.00 | 76 | 1012.8 |
| 20260508091006 | 8 | 303 | 0.0 | 0.0 | 0.00 | 0.00 | 0.00 | 75 | 1012.7 |
| 20260508090509 | 8 | 303 | 0.0 | 3.2 | 0.00 | 0.00 | 0.00 | 75 | 1012.4 |
| 20260508090030 | 8 | 303 | 0.0 | 3.2 | 0.00 | 0.00 | 0.00 | 74 | 1012.4 |
| 20260508085506 | 8 | 302 | 0.0 | 1.6 | 0.00 | 0.00 | 0.00 | 75 | 1012.4 |
| 20260508085008 | 8 | 302 | 0.0 | 4.8 | 0.00 | 0.00 | 0.00 | 74 | 1012.3 |
| 20260508084525 | 8 | 302 | 0.0 | 4.8 | 0.00 | 0.03 | 0.00 | 74 | 1012.2 |
| 20260508084006 | 8 | 307 | 1.6 | 4.8 | 0.00 | 0.03 | 0.00 | 73 | 1012.2 |
| 20260508083506 | 8 | 296 | 0.0 | 4.8 | 0.00 | 0.03 | 0.00 | 73 | 1012.2 |
| 20260508083021 | 8 | 303 | 1.6 | 6.4 | 0.00 | 0.03 | 0.00 | 72 | 1012.2 |
| 20260508082510 | 8 | 295 | 0.0 | 6.4 | 0.00 | 0.03 | 0.00 | 71 | 1012.1 |
| 20260508082008 | 8 | 292 | 1.6 | 9.7 | 0.00 | 0.03 | 0.00 | 71 | 1012.1 |
| 20260508081525 | 9 | 307 | 3.2 | 9.7 | 0.00 | 0.03 | 0.00 | 70 | 1012.2 |
| 20260508081009 | 9 | 291 | 3.2 | 9.7 | 0.00 | 0.03 | 0.00 | 70 | 1012.2 |
| 20260508080507 | 9 | 308 | 3.2 | 8.0 | 0.00 | 0.03 | 0.00 | 69 | 1012.0 |
| 20260508080027 | 9 | 305 | 0.0 | 11.3 | 0.00 | 0.03 | 0.00 | 70 | 1011.9 |
| 20260508075511 | 9 | 305 | 3.2 | 11.3 | 0.00 | 0.03 | 0.00 | 69 | 1011.8 |
| 20260508075010 | 9 | 274 | 0.0 | 8.0 | 0.00 | 0.03 | 0.00 | 70 | 1011.8 |
| 20260508074518 | 9 | 314 | 3.2 | 8.0 | 0.00 | 0.03 | 0.00 | 69 | 1011.7 |
| 20260508074006 | 9 | 302 | 0.0 | 4.8 | 0.00 | 0.03 | 0.00 | 70 | 1011.7 |
| 20260508073505 | 9 | 296 | 0.0 | 6.4 | 0.00 | 0.03 | 0.00 | 70 | 1011.5 |
| 20260508073020 | 10 | 304 | 0.0 | 6.4 | 0.00 | 0.03 | 0.00 | 70 | 1011.2 |
| 20260508072508 | 10 | 303 | 1.6 | 6.4 | 0.00 | 0.03 | 0.00 | 69 | 1010.9 |
| 20260508072012 | 10 | 290 | 1.6 | 6.4 | 0.00 | 0.03 | 0.00 | 69 | 1010.8 |
| 20260508071524 | 10 | 314 | 3.2 | 6.4 | 0.00 | 0.03 | 0.00 | 69 | 1010.7 |
| 20260508071009 | 10 | 310 | 3.2 | 17.7 | 0.00 | 0.03 | 0.00 | 69 | 1010.6 |
| 20260508070508 | 10 | 302 | 8.0 | 17.7 | 0.00 | 0.05 | 0.00 | 69 | 1010.4 |
| 20260508070018 | 10 | 297 | 1.6 | 11.3 | 0.00 | 0.05 | 0.00 | 70 | 1010.3 |
| 20260508065503 | 10 | 329 | 3.2 | 11.3 | 0.00 | 0.05 | 0.00 | 70 | 1010.0 |
| 20260508065007 | 10 | 306 | 3.2 | 11.3 | 0.00 | 0.05 | 0.00 | 71 | 1010.1 |
| 20260508064513 | 10 | 302 | 1.6 | 9.7 | 0.00 | 0.05 | 0.00 | 73 | 1010.3 |
| 20260508064007 | 10 | 295 | 3.2 | 8.0 | 0.00 | 0.08 | 0.00 | 74 | 1010.3 |
| 20260508063509 | 10 | 325 | 0.0 | 8.0 | 0.00 | 0.08 | 0.00 | 78 | 1010.1 |
| 20260508063025 | 10 | 306 | 4.8 | 12.9 | 0.00 | 0.08 | 0.00 | 79 | 1010.1 |
| 20260508062507 | 10 | 299 | 4.8 | 12.9 | 0.00 | 0.08 | 0.00 | 81 | 1009.9 |
| 20260508062009 | 9 | 322 | 3.2 | 8.0 | 0.00 | 0.10 | 0.00 | 85 | 1010.0 |
| 20260508061524 | 9 | 299 | 0.0 | 6.4 | 0.00 | 0.10 | 0.00 | 88 | 1010.2 |
| 20260508061009 | 8 | 278 | 0.0 | 0.0 | 0.00 | 0.13 | 0.00 | 89 | 1010.1 |
| 20260508060512 | 8 | 278 | 0.0 | 0.0 | 0.00 | 0.23 | 0.00 | 89 | 1010.2 |
| 20260508060024 | 8 | 278 | 0.0 | 0.0 | 0.00 | 0.30 | 0.00 | 88 | 1009.9 |
| 20260508055509 | 8 | 278 | 0.0 | 0.0 | 0.00 | 0.41 | 0.00 | 88 | 1009.8 |
| 20260508055010 | 7 | 278 | 0.0 | 0.0 | 0.00 | 0.46 | 0.00 | 88 | 1009.7 |
| 20260508054513 | 7 | 278 | 0.0 | 0.0 | 0.00 | 0.46 | 0.00 | 88 | 1009.6 |
| 20260508054006 | 7 | 278 | 0.0 | 0.0 | 0.00 | 0.46 | 0.00 | 88 | 1009.7 |
| 20260508053505 | 7 | 278 | 0.0 | 0.0 | 0.00 | 0.46 | 0.00 | 88 | 1009.6 |
| 20260508053017 | 7 | 278 | 0.0 | 0.0 | 0.00 | 0.46 | 0.00 | 87 | 1009.6 |
| 20260508052509 | 7 | 278 | 0.0 | 0.0 | 0.00 | 0.46 | 0.00 | 87 | 1009.7 |
| 20260508052009 | 7 | 278 | 0.0 | 0.0 | 0.00 | 0.46 | 0.00 | 88 | 1009.7 |
| 20260508051523 | 7 | 278 | 0.0 | 0.0 | 0.00 | 0.46 | 0.00 | 88 | 1009.8 |
| 20260508051007 | 7 | 278 | 0.0 | 0.0 | 0.00 | 0.46 | 0.00 | 88 | 1009.8 |
| 20260508050508 | 7 | 278 | 0.0 | 0.0 | 0.00 | 0.46 | 0.00 | 88 | 1009.9 |
| 20260508050027 | 7 | 278 | 0.0 | 0.0 | 0.00 | 0.46 | 0.00 | 88 | 1010.0 |
| 20260508045509 | 7 | 276 | 0.0 | 0.0 | 0.00 | 0.46 | 0.00 | 88 | 1010.0 |
| 20260508045010 | 7 | 276 | 0.0 | 0.0 | 0.00 | 0.46 | 0.00 | 87 | 1009.9 |
| 20260508044528 | 7 | 276 | 0.0 | 0.0 | 0.00 | 0.46 | 0.00 | 87 | 1009.8 |
| 20260508044009 | 7 | 276 | 0.0 | 0.0 | 0.00 | 0.46 | 0.00 | 87 | 1009.7 |
| 20260508043503 | 7 | 276 | 0.0 | 0.0 | 0.00 | 0.46 | 0.00 | 87 | 1009.7 |
| 20260508043020 | 7 | 276 | 0.0 | 0.0 | 0.00 | 0.46 | 0.00 | 86 | 1009.7 |
| 20260508042508 | 7 | 276 | 0.0 | 0.0 | 0.00 | 0.46 | 0.00 | 86 | 1009.7 |
| 20260508042008 | 7 | 276 | 0.0 | 0.0 | 0.00 | 0.46 | 0.00 | 86 | 1009.6 |
| 20260508041518 | 7 | 276 | 0.0 | 0.0 | 0.00 | 0.46 | 0.00 | 85 | 1009.6 |
| 20260508041007 | 7 | 276 | 0.0 | 0.0 | 0.00 | 0.46 | 0.00 | 85 | 1009.6 |
| 20260508040507 | 7 | 276 | 0.0 | 0.0 | 0.00 | 0.46 | 0.00 | 85 | 1009.6 |
| 20260508040027 | 7 | 276 | 0.0 | 0.0 | 0.00 | 0.46 | 0.00 | 84 | 1009.6 |
| 20260508035509 | 8 | 275 | 0.0 | 0.0 | 0.00 | 0.46 | 0.46 | 84 | 1009.8 |
| 20260508035009 | 8 | 276 | 0.0 | 0.0 | 0.00 | 0.46 | 0.46 | 84 | 1009.7 |
| 20260508034524 | 8 | 275 | 0.0 | 0.0 | 0.00 | 0.46 | 0.46 | 84 | 1009.7 |
| 20260508034012 | 8 | 276 | 0.0 | 0.0 | 0.00 | 0.46 | 0.46 | 84 | 1009.7 |
| 20260508033512 | 8 | 276 | 0.0 | 0.0 | 0.00 | 0.46 | 0.46 | 83 | 1009.7 |
| 20260508033025 | 8 | 276 | 0.0 | 0.0 | 0.00 | 0.48 | 0.46 | 83 | 1009.6 |
| 20260508032511 | 8 | 276 | 0.0 | 0.0 | 0.00 | 0.48 | 0.46 | 82 | 1009.6 |
| 20260508032007 | 8 | 276 | 0.0 | 0.0 | 0.00 | 0.48 | 0.46 | 82 | 1009.6 |
| 20260508031521 | 8 | 276 | 0.0 | 0.0 | 0.00 | 0.48 | 0.46 | 82 | 1009.6 |
| 20260508031008 | 9 | 276 | 0.0 | 0.0 | 0.00 | 0.48 | 0.46 | 81 | 1009.4 |
| 20260508030507 | 9 | 275 | 0.0 | 0.0 | 0.00 | 0.48 | 0.46 | 79 | 1009.5 |
| 20260508030038 | 9 | 275 | 0.0 | 0.0 | 0.00 | 0.48 | 0.46 | 79 | 1009.6 |
| 20260508025508 | 9 | 275 | 0.0 | 0.0 | 0.00 | 0.51 | 0.46 | 79 | 1009.7 |
| 20260508025007 | 10 | 275 | 0.0 | 0.0 | 0.00 | 0.51 | 0.46 | 78 | 1009.7 |
| 20260508024529 | 10 | 275 | 0.0 | 0.0 | 0.00 | 0.51 | 0.46 | 77 | 1009.8 |
| 20260508024009 | 10 | 275 | 0.0 | 0.0 | 0.00 | 0.53 | 0.46 | 77 | 1009.8 |
| 20260508023510 | 10 | 275 | 0.0 | 0.0 | 0.00 | 0.53 | 0.46 | 76 | 1009.9 |
| 20260508023025 | 10 | 275 | 0.0 | 0.0 | 0.00 | 0.53 | 0.46 | 75 | 1009.9 |
| 20260508022513 | 10 | 275 | 0.0 | 0.0 | 0.00 | 0.53 | 0.46 | 75 | 1009.9 |
| 20260508022012 | 11 | 275 | 0.0 | 0.0 | 0.00 | 0.53 | 0.46 | 74 | 1009.9 |
| 20260508021527 | 11 | 275 | 0.0 | 0.0 | 0.00 | 0.53 | 0.46 | 73 | 1009.9 |
| 20260508021009 | 11 | 275 | 0.0 | 0.0 | 0.00 | 0.53 | 0.46 | 73 | 1009.8 |
| 20260508020504 | 11 | 275 | 0.0 | 0.0 | 0.00 | 0.53 | 0.46 | 71 | 1009.8 |
| 20260508020017 | 11 | 275 | 0.0 | 0.0 | 0.00 | 0.53 | 0.46 | 71 | 1009.7 |
| 20260508015507 | 11 | 275 | 0.0 | 0.0 | 0.00 | 0.53 | 0.46 | 70 | 1009.8 |
| 20260508015006 | 11 | 275 | 0.0 | 0.0 | 0.00 | 0.53 | 0.46 | 70 | 1009.7 |
| 20260508014521 | 12 | 275 | 0.0 | 0.0 | 0.00 | 0.53 | 0.46 | 69 | 1009.7 |
| 20260508014007 | 12 | 275 | 0.0 | 0.0 | 0.00 | 0.53 | 0.46 | 68 | 1009.5 |
| 20260508013514 | 12 | 275 | 0.0 | 0.0 | 0.00 | 0.53 | 0.46 | 67 | 1009.4 |
| 20260508013024 | 12 | 275 | 0.0 | 0.0 | 0.00 | 0.53 | 0.46 | 67 | 1009.5 |
| 20260508012513 | 12 | 275 | 0.0 | 1.6 | 0.00 | 0.53 | 0.46 | 67 | 1009.4 |
| 20260508012007 | 12 | 257 | 0.0 | 1.6 | 0.00 | 0.53 | 0.46 | 67 | 1009.4 |
| 20260508011526 | 12 | 265 | 0.0 | 1.6 | 0.00 | 0.53 | 0.46 | 66 | 1009.4 |
| 20260508011007 | 12 | 281 | 0.0 | 1.6 | 0.00 | 0.53 | 0.46 | 66 | 1009.3 |
| 20260508010507 | 13 | 284 | 0.0 | 1.6 | 0.00 | 0.53 | 0.46 | 65 | 1009.3 |
| 20260508010028 | 13 | 289 | 0.0 | 3.2 | 0.00 | 0.53 | 0.46 | 64 | 1009.3 |
| 20260508005508 | 13 | 260 | 0.0 | 3.2 | 0.00 | 0.53 | 0.46 | 63 | 1009.2 |
| 20260508005008 | 13 | 252 | 0.0 | 1.6 | 0.00 | 0.53 | 0.46 | 63 | 1009.2 |
| 20260508004527 | 13 | 275 | 0.0 | 1.6 | 0.00 | 0.53 | 0.46 | 62 | 1009.2 |
| 20260508004013 | 13 | 262 | 0.0 | 1.6 | 0.00 | 0.53 | 0.46 | 60 | 1009.2 |
| 20260508003507 | 13 | 262 | 0.0 | 1.6 | 0.00 | 0.53 | 0.46 | 57 | 1009.0 |
| 20260508003026 | 13 | 306 | 0.0 | 1.6 | 0.00 | 0.53 | 0.46 | 54 | 1009.0 |
| 20260508002508 | 13 | 302 | 0.0 | 0.0 | 0.00 | 0.53 | 0.46 | 51 | 1008.8 |
| 20260508002010 | 14 | 302 | 0.0 | 0.0 | 0.00 | 0.53 | 0.46 | 50 | 1008.7 |
| 20260508001529 | 14 | 302 | 0.0 | 0.0 | 0.00 | 0.53 | 0.46 | 46 | 1008.5 |
| 20260508001010 | 15 | 302 | 0.0 | 0.0 | 0.00 | 0.53 | 0.46 | 43 | 1008.5 |
| 20260508000514 | 15 | 302 | 0.0 | 0.0 | 0.00 | 0.53 | 0.46 | 39 | 1008.5 |
| 20260508000027 | 15 | 302 | 0.0 | 0.0 | 0.00 | 0.53 | 0.46 | 38 | 1008.5 |
| 20260507235509 | 15 | 302 | 0.0 | 0.0 | 0.00 | 0.53 | 0.46 | 37 | 1008.4 |
| 20260507235010 | 16 | 302 | 0.0 | 0.0 | 0.00 | 0.53 | 0.46 | 37 | 1008.4 |
| 20260507234523 | 16 | 302 | 0.0 | 0.0 | 0.00 | 0.53 | 0.46 | 36 | 1008.3 |
| 20260507234007 | 16 | 302 | 0.0 | 1.6 | 0.00 | 0.53 | 0.46 | 35 | 1008.2 |
| 20260507233507 | 16 | 302 | 0.0 | 1.6 | 0.00 | 0.53 | 0.46 | 36 | 1008.3 |
| 20260507233026 | 16 | 302 | 0.0 | 1.6 | 0.00 | 0.53 | 0.46 | 35 | 1008.2 |
| 20260507232509 | 16 | 302 | 0.0 | 3.2 | 0.00 | 0.53 | 0.46 | 34 | 1008.0 |
| 20260507232011 | 16 | 300 | 0.0 | 3.2 | 0.00 | 0.53 | 0.46 | 34 | 1008.0 |
| 20260507231529 | 16 | 300 | 1.6 | 3.2 | 0.00 | 0.53 | 0.46 | 33 | 1008.0 |
| 20260507231007 | 16 | 308 | 0.0 | 3.2 | 0.00 | 0.53 | 0.46 | 34 | 1008.0 |
| 20260507230510 | 17 | 288 | 0.0 | 6.4 | 0.00 | 0.53 | 0.46 | 36 | 1008.1 |
| 20260507230029 | 17 | 309 | 0.0 | 6.4 | 0.00 | 0.53 | 0.46 | 33 | 1008.1 |
| 20260507225512 | 17 | 310 | 0.0 | 4.8 | 0.00 | 0.53 | 0.46 | 33 | 1008.0 |
| 20260507225010 | 17 | 309 | 0.0 | 4.8 | 0.00 | 0.53 | 0.46 | 33 | 1007.9 |
| 20260507224526 | 17 | 303 | 0.0 | 4.8 | 0.00 | 0.53 | 0.46 | 33 | 1008.0 |
| 20260507224008 | 17 | 305 | 1.6 | 4.8 | 0.00 | 0.53 | 0.46 | 32 | 1007.9 |
| 20260507223508 | 17 | 301 | 0.0 | 6.4 | 0.00 | 0.53 | 0.46 | 36 | 1008.0 |
| 20260507223022 | 17 | 298 | 3.2 | 6.4 | 0.00 | 0.53 | 0.46 | 31 | 1008.0 |
| 20260507222511 | 17 | 296 | 3.2 | 6.4 | 0.00 | 0.53 | 0.46 | 32 | 1008.0 |
| 20260507222011 | 17 | 299 | 0.0 | 6.4 | 0.00 | 0.53 | 0.46 | 34 | 1008.0 |
| 20260507221527 | 18 | 292 | 0.0 | 1.6 | 0.00 | 0.53 | 0.46 | 34 | 1007.9 |
| 20260507221009 | 18 | 292 | 0.0 | 4.8 | 0.00 | 0.53 | 0.46 | 35 | 1008.0 |
| 20260507220503 | 18 | 293 | 0.0 | 4.8 | 0.00 | 0.53 | 0.46 | 34 | 1007.9 |
| 20260507220013 | 18 | 263 | 1.6 | 6.4 | 0.00 | 0.53 | 0.46 | 33 | 1008.0 |
| 20260507215503 | 18 | 250 | 1.6 | 6.4 | 0.00 | 0.53 | 0.46 | 32 | 1008.0 |
| 20260507215005 | 18 | 297 | 0.0 | 4.8 | 0.00 | 0.53 | 0.46 | 32 | 1008.0 |
| 20260507214519 | 18 | 263 | 1.6 | 4.8 | 0.00 | 0.53 | 0.46 | 32 | 1008.0 |
| 20260507214007 | 18 | 221 | 1.6 | 6.4 | 0.00 | 0.53 | 0.46 | 32 | 1008.1 |
| 20260507213506 | 18 | 262 | 1.6 | 6.4 | 0.00 | 0.53 | 0.46 | 33 | 1008.0 |
| 20260507213022 | 18 | 243 | 3.2 | 4.8 | 0.00 | 0.53 | 0.46 | 32 | 1007.9 |
| 20260507212505 | 18 | 263 | 1.6 | 4.8 | 0.00 | 0.53 | 0.46 | 32 | 1007.9 |
| 20260507212011 | 18 | 269 | 1.6 | 6.4 | 0.00 | 0.53 | 0.46 | 36 | 1007.8 |
| 20260507211524 | 18 | 230 | 3.2 | 6.4 | 0.00 | 0.53 | 0.46 | 32 | 1007.8 |
| 20260507211009 | 18 | 308 | 0.0 | 6.4 | 0.00 | 0.53 | 0.46 | 33 | 1007.8 |
| 20260507210502 | 18 | 221 | 1.6 | 4.8 | 0.00 | 0.53 | 0.46 | 34 | 1007.8 |
| 20260507210011 | 18 | 258 | 1.6 | 4.8 | 0.00 | 0.53 | 0.46 | 33 | 1007.8 |
| 20260507205506 | 18 | 261 | 1.6 | 11.3 | 0.00 | 0.53 | 0.46 | 33 | 1007.7 |
| 20260507205009 | 18 | 283 | 0.0 | 11.3 | 0.00 | 0.53 | 0.46 | 35 | 1007.7 |
| 20260507204516 | 18 | 307 | 1.6 | 4.8 | 0.00 | 0.53 | 0.46 | 35 | 1007.8 |
| 20260507204006 | 18 | 265 | 1.6 | 4.8 | 0.00 | 0.53 | 0.46 | 33 | 1007.7 |
| 20260507203507 | 18 | 259 | 1.6 | 4.8 | 0.00 | 0.53 | 0.46 | 33 | 1007.8 |
| 20260507203020 | 18 | 266 | 1.6 | 4.8 | 0.00 | 0.53 | 0.46 | 34 | 1007.9 |
| 20260507202509 | 17 | 259 | 0.0 | 0.0 | 0.00 | 0.53 | 0.46 | 34 | 1007.9 |
| 20260507202009 | 17 | 283 | 0.0 | 0.0 | 0.00 | 0.53 | 0.46 | 35 | 1007.9 |
| 20260507201528 | 17 | 299 | 0.0 | 1.6 | 0.00 | 0.53 | 0.46 | 36 | 1008.0 |
| 20260507201009 | 17 | 276 | 0.0 | 1.6 | 0.00 | 0.53 | 0.46 | 34 | 1008.0 |
| 20260507200510 | 17 | 269 | 0.0 | 3.2 | 0.00 | 0.53 | 0.46 | 36 | 1008.0 |
| 20260507200026 | 17 | 267 | 0.0 | 3.2 | 0.00 | 0.53 | 0.46 | 38 | 1008.1 |
| 20260507195503 | 17 | 272 | 1.6 | 8.0 | 0.00 | 0.53 | 0.46 | 34 | 1008.2 |
| 20260507195003 | 17 | 263 | 1.6 | 8.0 | 0.00 | 0.53 | 0.46 | 34 | 1008.2 |
| 20260507194511 | 17 | 304 | 1.6 | 11.3 | 0.00 | 0.53 | 0.46 | 35 | 1008.2 |
| 20260507194007 | 17 | 303 | 1.6 | 11.3 | 0.00 | 0.53 | 0.46 | 36 | 1008.2 |
| 20260507193506 | 17 | 301 | 1.6 | 11.3 | 0.00 | 0.53 | 0.46 | 33 | 1008.3 |
| 20260507193025 | 17 | 217 | 4.8 | 11.3 | 0.00 | 0.53 | 0.46 | 34 | 1008.3 |
| 20260507192508 | 17 | 284 | 1.6 | 9.7 | 0.00 | 0.53 | 0.46 | 33 | 1008.4 |
| 20260507192009 | 17 | 218 | 4.8 | 9.7 | 0.00 | 0.53 | 0.46 | 36 | 1008.5 |
| 20260507191524 | 17 | 302 | 0.0 | 11.3 | 0.00 | 0.53 | 0.46 | 34 | 1008.5 |
| 20260507191005 | 17 | 302 | 3.2 | 11.3 | 0.00 | 0.53 | 0.46 | 37 | 1008.6 |
| 20260507190509 | 17 | 307 | 1.6 | 6.4 | 0.00 | 0.53 | 0.46 | 33 | 1008.6 |
| 20260507190023 | 17 | 282 | 0.0 | 8.0 | 0.00 | 0.53 | 0.46 | 36 | 1008.7 |
| 20260507185511 | 16 | 299 | 1.6 | 8.0 | 0.00 | 0.53 | 0.46 | 36 | 1008.6 |
| 20260507185009 | 16 | 261 | 3.2 | 12.9 | 0.00 | 0.53 | 0.46 | 35 | 1008.8 |
| 20260507184528 | 16 | 311 | 3.2 | 12.9 | 0.00 | 0.53 | 0.46 | 39 | 1008.8 |
| 20260507184004 | 16 | 293 | 0.0 | 4.8 | 0.00 | 0.53 | 0.46 | 36 | 1008.9 |
| 20260507183503 | 16 | 273 | 1.6 | 9.7 | 0.00 | 0.53 | 0.46 | 35 | 1009.0 |
| 20260507183025 | 16 | 311 | 0.0 | 9.7 | 0.00 | 0.53 | 0.46 | 37 | 1009.0 |
| 20260507182508 | 16 | 310 | 4.8 | 9.7 | 0.00 | 0.53 | 0.46 | 35 | 1009.1 |
| 20260507182008 | 16 | 272 | 1.6 | 8.0 | 0.00 | 0.53 | 0.46 | 37 | 1009.0 |
| 20260507181521 | 16 | 304 | 4.8 | 8.0 | 0.00 | 0.53 | 0.46 | 36 | 1009.0 |
| 20260507181009 | 16 | 297 | 0.0 | 6.4 | 0.00 | 0.53 | 0.46 | 37 | 1009.0 |
| 20260507180506 | 16 | 302 | 1.6 | 11.3 | 0.00 | 0.53 | 0.46 | 37 | 1009.2 |
| 20260507180024 | 16 | 288 | 4.8 | 11.3 | 0.00 | 0.53 | 0.46 | 36 | 1009.3 |
| 20260507175506 | 16 | 250 | 1.6 | 4.8 | 0.00 | 0.53 | 0.46 | 38 | 1009.4 |
| 20260507175009 | 16 | 263 | 0.0 | 6.4 | 0.00 | 0.53 | 0.46 | 38 | 1009.5 |
| 20260507174531 | 16 | 257 | 1.6 | 6.4 | 0.00 | 0.53 | 0.46 | 39 | 1009.5 |
| 20260507174011 | 16 | 254 | 1.6 | 6.4 | 0.00 | 0.53 | 0.46 | 37 | 1009.6 |
| 20260507173510 | 16 | 221 | 3.2 | 6.4 | 0.00 | 0.53 | 0.46 | 36 | 1009.6 |
| 20260507173011 | 16 | 259 | 0.0 | 8.0 | 0.00 | 0.53 | 0.46 | 38 | 1009.6 |
| 20260507172507 | 16 | 246 | 1.6 | 9.7 | 0.00 | 0.53 | 0.46 | 36 | 1009.7 |
| 20260507172007 | 16 | 264 | 1.6 | 9.7 | 0.00 | 0.53 | 0.46 | 39 | 1009.7 |
| 20260507171526 | 16 | 329 | 0.0 | 4.8 | 0.00 | 0.53 | 0.46 | 37 | 1009.8 |
| 20260507171007 | 16 | 299 | 0.0 | 6.4 | 0.00 | 0.53 | 0.46 | 38 | 1009.9 |
| 20260507170507 | 16 | 302 | 1.6 | 11.3 | 0.00 | 0.53 | 0.46 | 42 | 1010.1 |
| 20260507170024 | 16 | 302 | 3.2 | 11.3 | 0.00 | 0.53 | 0.46 | 40 | 1010.1 |
| 20260507165507 | 16 | 304 | 3.2 | 8.0 | 0.00 | 0.53 | 0.46 | 38 | 1010.1 |
| 20260507165006 | 15 | 298 | 1.6 | 4.8 | 0.00 | 0.53 | 0.46 | 44 | 1010.1 |
| 20260507164522 | 15 | 312 | 0.0 | 6.4 | 0.00 | 0.53 | 0.46 | 39 | 1010.1 |
| 20260507164007 | 15 | 291 | 0.0 | 6.4 | 0.00 | 0.53 | 0.46 | 42 | 1010.2 |
| 20260507163509 | 15 | 314 | 3.2 | 6.4 | 0.00 | 0.53 | 0.46 | 42 | 1010.4 |
| 20260507163028 | 15 | 268 | 3.2 | 6.4 | 0.00 | 0.53 | 0.46 | 40 | 1010.4 |
| 20260507162511 | 15 | 251 | 1.6 | 9.7 | 0.00 | 0.53 | 0.46 | 43 | 1010.5 |
| 20260507162006 | 15 | 277 | 1.6 | 9.7 | 0.00 | 0.53 | 0.46 | 43 | 1010.5 |
| 20260507161514 | 15 | 306 | 1.6 | 8.0 | 0.00 | 0.53 | 0.46 | 47 | 1010.5 |
| 20260507161004 | 15 | 335 | 1.6 | 8.0 | 0.00 | 0.53 | 0.46 | 41 | 1010.6 |
| 20260507160511 | 15 | 314 | 3.2 | 8.0 | 0.00 | 0.53 | 0.46 | 41 | 1010.7 |
| 20260507160028 | 15 | 297 | 3.2 | 6.4 | 0.00 | 0.53 | 0.46 | 42 | 1010.6 |
| 20260507155510 | 15 | 283 | 1.6 | 9.7 | 0.00 | 0.53 | 0.46 | 42 | 1010.8 |
| 20260507155007 | 15 | 267 | 1.6 | 9.7 | 0.00 | 0.53 | 0.46 | 48 | 1010.8 |
| 20260507154523 | 15 | 258 | 1.6 | 6.4 | 0.00 | 0.53 | 0.46 | 45 | 1011.1 |
| 20260507154012 | 15 | 313 | 3.2 | 8.0 | 0.00 | 0.53 | 0.46 | 48 | 1011.0 |
| 20260507153510 | 15 | 325 | 1.6 | 8.0 | 0.00 | 0.53 | 0.46 | 48 | 1011.0 |
| 20260507153027 | 15 | 302 | 1.6 | 8.0 | 0.00 | 0.53 | 0.46 | 51 | 1011.1 |
| 20260507152510 | 15 | 282 | 1.6 | 6.4 | 0.00 | 0.53 | 0.46 | 50 | 1011.3 |
| 20260507152008 | 15 | 303 | 3.2 | 6.4 | 0.00 | 0.53 | 0.46 | 50 | 1011.5 |
| 20260507151528 | 15 | 265 | 1.6 | 6.4 | 0.00 | 0.53 | 0.46 | 50 | 1011.5 |
| 20260507151010 | 14 | 260 | 0.0 | 6.4 | 0.00 | 0.53 | 0.46 | 54 | 1011.5 |
| 20260507150510 | 14 | 285 | 1.6 | 6.4 | 0.00 | 0.53 | 0.46 | 53 | 1011.5 |
| 20260507150018 | 14 | 299 | 1.6 | 6.4 | 0.00 | 0.53 | 0.46 | 51 | 1011.7 |
| 20260507145508 | 14 | 292 | 1.6 | 8.0 | 0.00 | 0.53 | 0.46 | 54 | 1011.7 |
| 20260507145009 | 13 | 300 | 0.0 | 8.0 | 0.00 | 0.53 | 0.46 | 51 | 1011.7 |
| 20260507144522 | 13 | 308 | 3.2 | 8.0 | 0.00 | 0.53 | 0.46 | 53 | 1011.8 |
| 20260507144007 | 13 | 292 | 3.2 | 12.9 | 0.00 | 0.53 | 0.46 | 55 | 1011.9 |
| 20260507143508 | 13 | 308 | 4.8 | 12.9 | 0.00 | 0.53 | 0.46 | 57 | 1011.9 |
| 20260507143038 | 13 | 295 | 3.2 | 8.0 | 0.00 | 0.53 | 0.46 | 62 | 1012.0 |
| 20260507142509 | 13 | 265 | 1.6 | 8.0 | 0.00 | 0.53 | 0.46 | 62 | 1012.1 |
| 20260507142011 | 13 | 214 | 1.6 | 6.4 | 0.00 | 0.53 | 0.46 | 64 | 1012.1 |
| 20260507141538 | 13 | 315 | 1.6 | 6.4 | 0.00 | 0.53 | 0.46 | 64 | 1012.1 |
| 20260507141008 | 13 | 256 | 3.2 | 9.7 | 0.00 | 0.53 | 0.46 | 65 | 1012.1 |
| 20260507140509 | 12 | 264 | 1.6 | 9.7 | 0.00 | 0.53 | 0.46 | 67 | 1012.1 |
| 20260507140030 | 12 | 276 | 0.0 | 6.4 | 0.00 | 0.53 | 0.46 | 75 | 1012.1 |
| 20260507135506 | 12 | 255 | 0.0 | 6.4 | 0.00 | 0.53 | 0.46 | 72 | 1012.0 |
| 20260507135007 | 12 | 261 | 1.6 | 6.4 | 0.00 | 0.53 | 0.46 | 74 | 1012.0 |
| 20260507134520 | 11 | 240 | 1.6 | 4.8 | 0.00 | 0.53 | 0.46 | 80 | 1011.9 |
| 20260507134007 | 11 | 296 | 0.0 | 6.4 | 0.00 | 0.53 | 0.46 | 83 | 1012.0 |
| 20260507133509 | 11 | 310 | 0.0 | 6.4 | 0.00 | 0.53 | 0.46 | 81 | 1011.9 |
| 20260507133024 | 11 | 219 | 1.6 | 6.4 | 0.00 | 0.53 | 0.46 | 81 | 1012.0 |
| 20260507132507 | 11 | 256 | 0.0 | 0.0 | 0.00 | 0.53 | 0.46 | 83 | 1012.0 |
| 20260507132010 | 10 | 268 | 0.0 | 6.4 | 0.00 | 0.53 | 0.46 | 84 | 1012.1 |
| 20260507131527 | 10 | 279 | 0.0 | 6.4 | 0.00 | 0.53 | 0.46 | 87 | 1011.9 |
| 20260507131004 | 10 | 307 | 1.6 | 6.4 | 0.00 | 0.53 | 0.46 | 88 | 1011.8 |
| 20260507130503 | 10 | 271 | 0.0 | 4.8 | 0.00 | 0.53 | 0.46 | 88 | 1011.9 |
| 20260507130029 | 10 | 293 | 0.0 | 4.8 | 0.00 | 0.53 | 0.46 | 89 | 1012.0 |
| 20260507125509 | 10 | 258 | 0.0 | 0.0 | 0.00 | 0.53 | 0.46 | 90 | 1011.9 |
| 20260507125007 | 10 | 258 | 0.0 | 0.0 | 0.00 | 0.53 | 0.46 | 91 | 1012.0 |
| 20260507124517 | 10 | 281 | 0.0 | 0.0 | 0.00 | 0.53 | 0.46 | 91 | 1012.1 |
| 20260507124008 | 10 | 281 | 0.0 | 1.6 | 0.00 | 0.53 | 0.46 | 91 | 1012.1 |
| 20260507123507 | 10 | 281 | 0.0 | 1.6 | 0.00 | 0.53 | 0.46 | 92 | 1012.2 |
| 20260507123022 | 10 | 309 | 0.0 | 1.6 | 0.00 | 0.53 | 0.46 | 93 | 1012.1 |
| 20260507122503 | 10 | 309 | 0.0 | 1.6 | 0.00 | 0.53 | 0.46 | 92 | 1012.0 |
| 20260507122003 | 10 | 282 | 0.0 | 0.0 | 0.00 | 0.53 | 0.46 | 93 | 1011.9 |
| 20260507121506 | 10 | 280 | 0.0 | 0.0 | 0.00 | 0.53 | 0.46 | 92 | 1012.0 |
| 20260507121003 | 10 | 280 | 0.0 | 0.0 | 0.00 | 0.53 | 0.46 | 93 | 1012.1 |
| 20260507120502 | 10 | 280 | 0.0 | 0.0 | 0.00 | 0.53 | 0.46 | 93 | 1012.1 |
| 20260507120012 | 10 | 280 | 0.0 | 0.0 | 0.00 | 0.53 | 0.46 | 93 | 1012.1 |
| 20260507115504 | 10 | 280 | 0.0 | 0.0 | 0.00 | 0.53 | 0.46 | 93 | 1011.9 |
| 20260507115008 | 10 | 280 | 0.0 | 0.0 | 0.00 | 0.53 | 0.46 | 93 | 1011.9 |
| 20260507114520 | 10 | 280 | 0.0 | 0.0 | 0.00 | 0.53 | 0.46 | 93 | 1011.8 |
| 20260507114007 | 10 | 280 | 0.0 | 0.0 | 0.00 | 0.53 | 0.46 | 93 | 1011.8 |
| 20260507113509 | 10 | 280 | 0.0 | 0.0 | 0.00 | 0.53 | 0.46 | 93 | 1011.8 |
| 20260507113023 | 9 | 280 | 0.0 | 0.0 | 0.00 | 0.53 | 0.46 | 93 | 1011.8 |
| 20260507112510 | 9 | 292 | 0.0 | 0.0 | 0.00 | 0.53 | 0.46 | 93 | 1011.4 |
| 20260507112009 | 9 | 292 | 0.0 | 0.0 | 0.00 | 0.53 | 0.46 | 93 | 1011.4 |
| 20260507111504 | 9 | 292 | 0.0 | 0.0 | 0.00 | 0.53 | 0.46 | 93 | 1011.2 |
| 20260507111004 | 9 | 292 | 0.0 | 0.0 | 0.00 | 0.53 | 0.46 | 93 | 1011.0 |
| 20260507110504 | 9 | 292 | 0.0 | 0.0 | 0.00 | 0.53 | 0.46 | 93 | 1011.0 |
| 20260507110010 | 9 | 292 | 0.0 | 0.0 | 0.00 | 0.53 | 0.46 | 93 | 1011.0 |
| 20260507105504 | 9 | 292 | 0.0 | 0.0 | 0.00 | 0.53 | 0.46 | 93 | 1010.8 |